www.pogodaiklimat.ru

Погода и климат >> Архив погоды >> Пакистан >> Сиби


ПОГОДА в Сиби

  • Прогноз погоды в Сиби
  • Монитор погоды в Сиби

АРХИВ ПОГОДЫ в Сиби

Время (UTC), дата Ветер
(напр.,м/с)
 
Видим.   Явления Облачность Т
(С)
Тd
(С)
f
(%)
Тe
(С)
Тes
(С)
Комфортность P
(гПа)
Po
(гПа)
Тmin
(С)
Tmax
(С)
R
(мм)
R24
(мм)
S
(см)
21 9.01 штиль 0 4000 м ясно +10.6 +7.4 81 +10 +10 1017.4 1000.0
00 10.01 штиль 0 4000 м ясно +7.8 +5.8 87 +7 +7 1016.7 1000.3
03 10.01 штиль 0 10 км ясно +10.0 +5.7 75 +9 +10 1018.0 1001.7 +6.1
06 10.01 штиль 0 10 км ясно +14.4 +4.9 53 +14 +24 1019.5 1000.0
09 10.01 штиль 0 10 км ясно +17.8 +5.8 45 +18 +27 1016.7 1000.0
12 10.01 штиль 0 10 км 5/5 300 м
[Sc]
+21.7 +5.6 35 +22 +22 комфорт 1014.3 998.7 +22.5
15 10.01 штиль 0 4000 м 5/5 300 м
[Sc]
+15.6 +5.0 49 +16 +16 1015.3 1000.0
18 10.01 штиль 0 4000 м ясно +12.2 +7.9 75 +12 +12 1016.0 1000.0
21 10.01 штиль 0 4000 м ясно +10.0 +5.7 75 +9 +9 1015.4 1015.0
00 11.01 штиль 0 4000 м ясно +8.3 +5.2 81 +8 +8 1014.7 998.3
03 11.01 штиль 0 10 км ясно +11.7 +5.0 63 +11 +12 1015.5 999.3 +7.1
06 11.01 штиль 0 10 км 5/5 300 м
[Sc]
+15.6 +6.3 54 +16 +20 1016.2 1000.0
09 11.01 штиль 0 10 км 5/5 300 м
[Sc]
+19.5 +7.9 47 +20 +25 1013.8 1000.0
12 11.01 штиль 0 10 км ясно +21.7 +8.3 42 +23 +23 комфорт 1010.9 995.3 +23.1
15 11.01 штиль 0 4000 м ясно +17.2 +7.0 51 +17 +17 1013.7 1000.0
18 11.01 штиль 0 4000 м ясно +13.3 +8.5 73 +13 +13 1015.5 1000.0
21 11.01 штиль 0 4000 м ясно +11.1 +6.8 75 +11 +11 1014.7 1000.0
00 12.01 штиль 0 4000 м ясно +9.4 +6.3 81 +9 +9 1014.4 998.1
03 12.01 штиль 0 10 км ясно +12.8 +5.6 62 +13 +13 1016.2 1000.1 +7.0
06 12.01 штиль 0 10 км ясно +17.2 +5.7 47 +17 +27 1018.2 1018.0
09 12.01 штиль 0 10 км ясно +20.0 +7.4 44 +21 +31 комфорт 1016.3 1016.0
12 12.01 штиль 0 10 км ясно +21.7 +8.3 42 +23 +23 комфорт 1013.0 997.4 +23.0
15 12.01 штиль 0 4000 м ясно +16.1 +5.7 50 +16 +16 1015.1 1000.0
18 12.01 штиль 0 4000 м ясно +12.2 +6.8 70 +12 +12 1017.7 1000.0
21 12.01 штиль 0 4000 м ясно +10.0 +5.7 75 +9 +9 1017.0 1000.0
00 13.01 штиль 0 4000 м ясно +8.3 +5.2 81 +8 +8 1016.3 999.9
03 13.01 штиль 0 10 км ясно +11.1 +6.8 75 +11 +11 1017.5 1001.3 +6.5
06 13.01 штиль 0 10 км ясно +15.6 +7.5 59 +16 +26 1019.2 1000.0
09 13.01 штиль 0 10 км ясно +21.1 +7.5 41 +22 +32 комфорт 1016.2 1000.0
12 13.01 штиль 0 10 км ясно +21.1 +7.5 41 +22 +22 комфорт 1015.7 1000.1 +23.1
15 13.01 штиль 0 4000 м ясно +15.0 +5.6 53 +15 +15 1018.7 1000.0
18 13.01 штиль 0 4000 м ясно +11.1 +5.6 69 +11 +11 1022.6 1000.0
21 13.01 штиль 0 4000 м ясно +8.9 +4.5 74 +8 +8 1022.4 1000.0
00 14.01 штиль 0 4000 м ясно +7.2 +3.5 77 +6 +6 1022.1 1005.6
03 14.01 штиль 0 10 км ясно +10.0 +4.4 68 +10 +10 1023.5 1007.2 +5.1
06 14.01 штиль 0 10 км ясно +13.9 +4.3 52 +14 +24 1026.2 1000.0
09 14.01 штиль 0 10 км ясно +18.3 +5.2 42 +18 +28 1021.7 1000.0
12 14.01 штиль 0 10 км ясно +20.0 +6.1 40 +21 +21 комфорт 1019.3 1003.6 +21.1
15 14.01 штиль 0 4000 м ясно +14.4 +6.2 58 +14 +14 1020.8 1000.0
18 14.01 штиль 0 4000 м ясно +10.6 +3.7 62 +10 +10 1022.2 1000.0
00 15.01 штиль 0 4000 м ясно +6.7 +2.9 77 +6 +6 1020.8 1004.3
03 15.01 штиль 0 4000 м ясно +6.7 +2.9 77 +6 +7 1020.8 1004.3
09 15.01 штиль 0 10 км 5/5 300 м
[Sc]
+17.2 +5.7 47 +17 +22 1019.5 1000.0
12 15.01 штиль 0 10 км ясно +20.0 +7.4 44 +21 +21 комфорт 1014.5 998.8 +21.5
15 15.01 штиль 0 4000 м ясно +15.6 +6.3 54 +16 +16 1015.9 1000.0
18 15.01 СЗ 1 4000 м ясно +11.7 +5.0 63 +12 +12 1017.7 1000.0
21 15.01 штиль 0 4000 м ясно +9.4 +5.1 74 +9 +9 1017.4 1000.0
00 16.01 штиль 0 4000 м ясно +7.8 +4.6 80 +7 +7 1017.0 1000.6
03 16.01 штиль 0 10 км ясно +10.6 +3.7 62 +10 +11 1018.5 1002.2 +5.5
06 16.01 штиль 0 10 км ясно +14.4 +4.9 53 +14 +24 1020.4 1000.0
09 16.01 штиль 0 10 км ясно +18.9 +7.2 47 +19 +29 1016.6 1000.0
12 16.01 штиль 0 10 км ясно +21.1 +8.8 45 +22 +23 комфорт 1013.3 997.7 +22.5
15 16.01 штиль 0 4000 м ясно +16.1 +6.9 54 +16 +16 1015.3 1000.0
18 16.01 штиль 0 4000 м ясно +12.2 +7.9 75 +12 +12 1017.5 1000.0

 

Местоположение метеостанции Сиби (Пакистан): широта 29.55 долгота 67.88 высота над уровнем моря 134 м.

В архиве по умолчанию представлена погода в Сиби за последнюю неделю. Архивные данные за месяц целиком и за предыдущие месяцы, начиная с января 2011 года, Вы можете получить, выбрав интересующий диапазон дат из раскрывающегося списка и нажав кнопку "Ввод!".


*Определитесь, кто Вы:
робот инопланетянин человек

Внимание! Время в таблицах - всемирное. Для получения местного времени необходимо прибавить поправку, которая равна 5 ч.

Смотрите также архив погоды в соседних городах и на ближайших метеорологических станциях:

Погода в Кветте (Пакистан) (124 км)
Погода в Калате (Пакистан) (139 км)
Погода в Джейкобабаде (Пакистан) (150 км)
Погода в Бархане (Пакистан) (181 км)
Погода в Хуздаре (Пакистан) (227 км)
Погода в Рохри (Пакистан) (232 км)
Погода в Зхобе (Пакистан) (252 км)
Погода в Ханпуре (Пакистан) (290 км)
Погода в Кандагаре (Афганистан) (292 км)
Погода в Пад Идан (Пакистан) (301 км)

Пояснения к столбцам:

Ветер - указаны скорость ветра в м/с - средняя за 10 мин, порывы в срок и между сроками (в фигурных скобках) и направление, откуда дует ветер: С - северный, СВ - северо-восточный, В - восточный, ЮВ - юго-восточный, Ю - южный, ЮЗ - юго-западный, З - западный, СЗ - северо-западный.
Видимость - горизонтальная дальность видимости в метрах или километрах. При видимости от 1 до 10 км при отсутствии осадков обычно наблюдается дымка, при ухудшении видимости до 1 км и менее - туман. В сухую погоду видимость может ухудшаться дымом, пылью или мглою.
Явления - указаны атмосферные явления, наблюдавшиеся в срок или в последний час перед сроком; фигурными скобками обозначены явления, наблюдавшиеся между сроками (за 1-3 часа до срока); квадратными скобками обозначены град или гололедные отложения с указанием их диаметра в мм.
Облачность - указаны через наклонную черту общая и нижняя облачность в баллах и высота нижней границы облаков в метрах; квадратными скобками обозначены формы облаков: Ci - перистые, Cs - перисто-слоистые, Cc - перисто-кучевые, Ac - высококучевые, As - высокослоистые, Sc - слоисто-кучевые, Ns - слоисто-дождевые, Cu - кучевые, Cb - кучево-дождевые. Подробнее классификацию облаков см. в Атласе облаков (PDF).
T - Температура воздуха - температура, измеренная на высоте 2 м над землей.
Td - Температура точки росы - температура, при понижении до которой содержащийся в воздухе водяной пар достигнет насыщения.
f - Относительная влажность воздуха - влажноcть воздуха, измеренная на высоте 2 м над землей.
Te - Эффективная температура - температура, которую ощущает одетый по сезону человек в тени. Характеристика душности погоды. При расчете учитывается влияние влажности воздуха и скорости ветра на теплоощущения человека.
Tes - Эффективная температура на солнце - температура, которую ощущает человек, с поправкой на солнечный нагрев. Характеристика знойности погоды. Зависит от высоты солнца над горизонтом, облачности и скорости ветра. Ночью, в пасмурную погоду, а также при ветре 12 м/с и более поправка равна нулю.
P - Атмосферное давление - приведенное к уровню моря атмосферное давление.
Po - Атмосферное давление - измеренное на уровне метеостанции атмосферное давление.
Tmin - Минимальная температура - минимум температуры воздуха на высоте 2 м над землей.
Tmax - Максимальная температура - максимум температуры воздуха на высоте 2 м над землей.
R - Количество осадков - Количество выпавших осадков за период времени, мм. При наведении курсора мыши на число - период времени, за который выпало указанное количество осадков.
R24 - Количество осадков - Количество выпавших осадков за 24 часа, мм.
S - Снежный покров - Высота снежного покрова, см. При наведении курсора мыши на число - состояние снежного покрова и степень покрытия местности в баллах.